FENGYUN 1C DEB

Satellite information

Favourite Embed

Satellite Type and Status

DEBRISIN ORBIT

Key statistics

Satellite FENGYUN 1C DEB at a glance.

Uptime

9609

Days in orbit

Revolutions

≈ 14.3

Per day

Orbit

SSO

Sun Synchronous Orbit

Inclination

99.0

Latest

Satellite identification and parameters

Extended collection of information and parameters for FENGYUN 1C DEB.

Object identification

Identified? True

Debris? True

Object name: FENGYUN 1C DEB

International designator: 1999-025BXY

Object number (NORAD): 31533

Object ID (CCSDS): 31533

Country: PEOPLES REPUBLIC OF CHINA (PRC)

Current information (Y/N): Y

RCS size: SMALL

Orbital parameters

Period: 100.886 minutes

Inclination: 98.9693 deg

SMA: 7178.724 km

Apoapsis: 847.13 km

Periapsis: 754.048 km

RAAN: 128.369 deg

Eccentricy: 0.00648318

Argument of periapsis: 301.5916 deg

Mean anomaly: 57.8946 deg

Mean motion: 14.27354614 rev/day

Mean motion (dot): 0.00000657 rev/day2

B* drag term: 0.00028108036 1/REarth

Two-line elements (TLE)

Creation date: Aug. 27, 2025, 2:14 a.m.

Reference frame: TEME

Reference center: EARTH

Epoch: Aug. 26, 2025, 10:47 p.m. UTC

TLE line 0: 0 FENGYUN 1C DEB

TLE line 1: 1 31533U 99025BXY 25238.94969524 .00000657 00000-0 28108-3 0 9998

TLE line 2: 2 31533 98.9693 128.3690 0064832 301.5916 57.8946 14.27354614645852

Live tracking on map

Real-time ground track for satellite FENGYUN 1C DEB.

In-orbit conjunctions

A list of the most updated potential collisions computed for object FENGYUN 1C DEB.

Target Orbit TCA Probability of collision Miss distance Type
CZ-6A DEB LEO 2025-04-09 09:16:17 0.0003129106 241.0 (m) DEBRIS
COSMOS 2369 LEO 2025-01-01 22:15:36 0.001012057 915.0 (m) PAYLOAD
COSMOS 1275 DEB LEO 2024-11-10 10:10:54 0.0001949308 671.0 (m) DEBRIS

Associated space launch

Chinese polar orbiting meteorological satellite

FENGYUN 1C DEB was lifted into orbit during the mission ‘Long March 4B | Feng Yun 1C’, on board a Long March 4B space rocket.

The launch took place on May 10, 1999, 1:33 a.m. from Launch Complex 7.

For more information about the launch, click the button.

Launch to space Long March 4B | Feng Yun 1C
Long March 4B | Feng Yun 1C

Agency: N/A

Status: Launch Successful

Launch date: May 10, 1999, 1:33 a.m. UTC

Rocket: Long March 4B

Launch pad: Launch Complex 7

Location: Taiyuan Satellite Launch Center, People's Republic of China

...

Latest news about this satellite

There are no fresh news available about this satellite. Check back as we update our databases every day.


Newsletter sign-up

Weekly statistics, charts and insights to help you stay on top of the space industry.